EW8689 Weather Reports


time (UTC)temp
C
wind
direction
speed
KPH
gust
KPH
rain 1hr
cm
rain 24hr
cm
rain mn
cm
humidity
%
barometer
mb
20260507194541 13 0.0 0.0 0.00 0.05 0.03 74 1012.0
20260507193047 13 0.0 0.0 0.00 0.05 0.03 74 1012.0
20260507191532 14 0.0 0.0 0.00 0.05 0.03 73 1011.8
20260507190030 15 0.0 0.0 0.00 0.05 0.03 72 1011.7
20260507184523 15 0.0 0.0 0.00 0.15 0.03 70 1011.6
20260507183019 15 0.0 0.0 0.00 0.15 0.03 69 1011.4
20260507181515 16 0.0 0.0 0.00 0.15 0.03 68 1011.4
20260507180009 16 0.0 0.0 0.00 0.15 0.03 67 1011.3
20260507174506 16 0.0 0.0 0.00 0.30 0.03 66 1011.1
20260507173001 16 0.0 0.0 0.00 0.30 0.03 65 1011.1
20260507171604 17 0.0 0.0 0.00 0.30 0.03 64 1011.2
20260507170055 17 0.0 0.0 0.00 0.30 0.03 62 1011.2
20260507164554 17 0.0 0.0 0.00 0.30 0.03 62 1011.3
20260507163101 18 0.0 0.0 0.00 0.30 0.03 58 1011.4
20260507161553 18 0.0 0.0 0.00 0.30 0.03 59 1011.4
20260507160050 18 0.0 0.0 0.00 0.30 0.03 56 1011.5
20260507154544 18 0.0 0.0 0.00 0.30 0.03 59 1011.6
20260507153039 18 0.0 0.0 0.00 0.30 0.03 59 1011.6
20260507151537 18 0.0 0.0 0.00 0.30 0.03 56 1011.6
20260507150031 17 0.0 0.0 0.00 0.30 0.03 62 1011.8
20260507144536 18 0.0 0.0 0.00 0.30 0.03 60 1011.8
20260507143021 17 0.0 0.0 0.00 0.30 0.03 59 1011.9
20260507141517 18 0.0 0.0 0.00 0.30 0.03 58 1011.9
20260507140011 18 0.0 0.0 0.00 0.30 0.03 59 1012.1
20260507134508 18 0.0 0.0 0.00 0.30 0.03 58 1012.4
20260507133003 17 0.0 0.0 0.00 0.30 0.03 62 1012.4
20260507131559 18 0.0 0.0 0.00 0.30 0.03 64 1012.6
20260507130105 17 0.0 0.0 0.00 0.30 0.03 67 1012.7
20260507124550 17 0.0 0.0 0.00 0.30 0.03 66 1012.8
20260507123048 17 0.0 0.0 0.00 0.30 0.03 68 1012.9
20260507121541 17 0.0 0.0 0.00 0.30 0.03 71 1012.9
20260507120037 17 0.0 0.0 0.00 0.30 0.03 74 1013.0
20260507114534 17 0.0 0.0 0.00 0.30 0.03 72 1013.0
20260507113029 17 0.0 0.0 0.00 0.30 0.03 71 1013.2
20260507111535 17 0.0 0.0 0.00 0.30 0.03 73 1013.3
20260507110020 17 0.0 0.0 0.00 0.30 0.03 70 1013.3
20260507104519 16 0.0 0.0 0.00 0.30 0.03 73 1013.3
20260507103010 17 0.0 0.0 0.00 0.30 0.03 70 1013.4
20260507101507 16 0.0 0.0 0.00 0.30 0.03 77 1013.4
20260507100001 15 0.0 0.0 0.00 0.41 0.03 75 1013.5
20260507094558 16 0.0 0.0 0.00 0.41 0.03 77 1013.6
20260507093059 15 0.0 0.0 0.00 0.41 0.03 80 1013.4
20260507091551 15 0.0 0.0 0.00 0.41 0.03 83 1013.4
20260507090043 14 0.0 0.0 0.00 0.41 0.03 86 1013.4
20260507084544 13 0.0 0.0 0.00 0.61 0.03 90 1013.4
20260507083036 12 0.0 0.0 0.00 0.61 0.03 91 1013.4
20260507081531 12 0.0 0.0 0.00 0.61 0.03 93 1013.4
20260507080027 12 0.0 0.0 0.00 0.61 0.03 95 1013.4
20260507074522 12 0.0 0.0 0.00 0.99 0.03 95 1013.3
20260507073018 11 0.0 0.0 0.00 0.99 0.03 96 1013.2
20260507071514 11 0.0 0.0 0.00 0.99 0.03 96 1013.3
20260507070015 11 0.0 0.0 0.00 0.99 0.03 96 1013.1
20260507064506 10 0.0 0.0 0.00 1.27 0.03 96 1013.1
20260507063101 10 0.0 0.0 0.00 1.27 0.03 96 1013.0
20260507061556 10 0.0 0.0 0.00 1.27 0.03 96 1013.0
20260507060057 10 0.0 0.0 0.00 1.27 0.03 96 1013.0
20260507054550 10 0.0 0.0 0.03 1.60 0.03 96 1012.9
20260507053049 9 0.0 0.0 0.03 1.60 0.03 96 1012.8
20260507051539 9 0.0 0.0 0.03 1.60 0.03 96 1012.5
20260507050034 9 0.0 0.0 0.03 1.60 0.03 96 1012.4
20260507044546 9 0.0 0.0 0.00 1.83 0.00 96 1012.3
20260507043026 9 0.0 0.0 0.00 1.83 0.00 95 1012.3
20260507041521 9 0.0 0.0 0.00 1.83 0.00 95 1012.3
20260507040016 9 0.0 0.0 0.00 1.83 0.00 96 1012.2
20260507034512 9 0.0 0.0 0.00 2.03 0.00 96 1012.1
20260507033008 8 0.0 0.0 0.00 2.03 0.00 95 1012.1
20260507031503 8 0.0 0.0 0.00 2.03 0.00 95 1012.0
20260507030104 8 0.0 0.0 0.00 2.03 0.00 95 1012.0
20260507024559 8 0.0 0.0 0.00 2.11 0.00 95 1012.1
20260507023053 8 0.0 0.0 0.00 2.11 0.00 95 1012.0
20260507021548 8 0.0 0.0 0.00 2.11 0.00 95 1011.9
20260507020049 8 0.0 0.0 0.00 2.11 0.00 95 1011.8
20260507014537 9 0.0 0.0 0.00 2.11 0.00 95 1011.7
20260507013033 9 0.0 0.0 0.00 2.11 0.00 95 1011.7
20260507011529 9 0.0 0.0 0.00 2.11 0.00 95 1011.6
20260507010028 9 0.0 0.0 0.00 2.11 0.00 95 1011.7
20260507004530 10 0.0 0.0 0.00 2.11 0.00 95 1011.6
20260507003021 10 0.0 0.0 0.00 2.11 0.00 95 1011.7
20260507001521 10 0.0 0.0 0.00 2.11 0.00 95 1011.7
20260507000012 10 0.0 0.0 0.00 2.11 0.00 95 1011.5
20260506234507 10 0.0 0.0 0.00 2.11 0.00 95 1011.4
20260506233102 10 0.0 0.0 0.00 2.11 0.00 94 1011.5
20260506231554 10 0.0 0.0 0.00 2.11 0.00 94 1011.5
20260506230054 10 0.0 0.0 0.00 2.11 0.00 94 1011.5
20260506224559 10 0.0 0.0 0.00 2.11 0.00 94 1011.4
20260506223042 10 0.0 0.0 0.00 2.11 0.00 94 1011.3
20260506221537 10 0.0 0.0 0.00 2.11 0.00 94 1011.3
20260506220037 10 0.0 0.0 0.00 2.11 0.00 94 1011.2
20260506214528 10 0.0 0.0 0.00 2.46 2.11 94 1011.1
20260506213024 10 0.0 0.0 0.00 2.46 2.11 94 1011.1
20260506211519 10 0.0 0.0 0.00 2.46 2.11 94 1011.1
20260506210021 10 0.0 0.0 0.00 2.46 2.11 93 1011.1
20260506204513 10 0.0 0.0 0.00 2.67 2.11 93 1010.9
20260506203007 10 0.0 0.0 0.00 2.67 2.11 93 1010.8
20260506201503 10 0.0 0.0 0.00 2.67 2.11 92 1010.6
20260506200058 10 0.0 0.0 0.03 2.67 2.11 92 1010.6